Location: Domicella
(40.8833°N, 14.5833°E)
Time: 13:28:15
(UTC+00:00)

Cosmos 1602 Rocket - Pass Details

Date: 15 May 2026
Orbit: 597 x 624 km, 82.5° (Epoch: 10 June)

Event Time Altitude Azimuth Distance (km) Brightness Sun altitude
Rises 20:41:34 0° 348° (NNW) 2,859 8.1 -22.2°
Reaches altitude 10° 20:43:48 10° 344° (NNW) 1,955 7.1 -22.5°
Maximum altitude 20:48:02 58° 266° (W) 710 3.9 -22.9°
Enters shadow 20:48:47 49° 224° (SW) 781 3.9 -23.0°
